#timestamp,LO_Frequency,Hit,StdDev 
1512036015.2,286047001.5,P
1512036035.0,286047004.0,P
1512036036.0,286047004.0,Y
1512036055.8,286046996.6,P
1512036075.6,286046997.5,N
1512036095.4,286046998.7,N
1512036115.3,286046999.0,N
1512036135.1,286046999.4,N
1512036155.8,286046997.5,N
1512036175.7,286046994.9,N
1512036195.5,286046993.4,N
1512036215.3,286046994.8,N
1512036235.2,286046993.4,N
1512036255.9,286046993.2,N
1512036275.7,286046991.8,N
1512036295.6,286046991.0,N
1512036315.4,286046986.9,Y
1512036335.2,286046996.3,P
1512036355.1,286046994.0,P
1512036356.0,286046994.0,P
1512036375.8,286046999.1,N
1512036395.6,286046997.4,N
1512036415.5,286046999.2,N
1512036435.3,286046997.4,N
1512036455.1,286046999.3,N
1512036475.9,286046996.2,N
1512036495.7,286046998.7,N
1512036515.5,286046995.1,N
1512036535.4,286046993.7,Y
1512036555.2,286046997.7,P
1512036575.0,286046999.3,N
1512036575.9,286046999.3,N
1512036595.7,286046997.0,N
1512036615.6,286046998.7,N
1512036635.4,286046999.5,N
1512036655.2,286047000.2,N
1512036675.1,286046997.9,N
1512036676.0,286046997.9,N
1512036695.8,286046998.9,N
1512036715.6,286046999.1,N
1512036735.5,286046998.2,N
1512036755.3,286046996.8,Y
1512036775.1,286046995.0,P
1512036795.9,286046998.2,N
1512036815.7,286047001.1,N
1512036835.5,286047001.0,N
1512036855.4,286046998.9,N
1512036875.2,286046999.5,N
1512036895.0,286047002.2,N
1512036895.9,286047002.2,N
1512036915.8,286046999.3,N
1512036935.6,286046996.6,N
1512036955.4,286046996.5,N
1512036975.3,286046997.9,N
1512036995.1,286046995.3,N
1512036996.0,286046995.3,N
1512037015.8,286046997.8,N
1512037035.7,286046998.0,N
1512037055.5,286046997.3,N
1512037075.3,286046997.2,N
1512037095.1,286046997.7,N
1512037115.9,286046996.0,N
1512037135.7,286046995.7,N
1512037155.5,286046999.4,N
1512037175.4,286046997.9,N
1512037195.2,286046993.5,Y
1512037215.0,286047000.1,P
1512037215.9,286047000.1,N
1512037235.8,286046999.6,N
1512037255.6,286046992.1,Y
1512037275.4,286046991.9,P
1512037295.3,286046992.6,N
1512037315.1,286046994.4,N
1512037335.8,286046997.5,N
1512037355.7,286046992.5,N
1512037375.5,286046994.3,N
1512037395.3,286046992.1,Y
1512037415.2,286046993.7,P
1512037435.0,286046994.4,P
1512037435.9,286046994.4,P
1512037455.7,286046995.5,Y
1512037475.6,286047002.0,P
1512037495.4,286047001.4,N
1512037515.2,286047003.6,N
1512037535.1,286047003.3,N
1512037536.0,286047003.3,N
1512037555.8,286047009.0,N
1512037575.6,286047008.5,N
1512037595.5,286047008.7,N
1512037615.3,286047003.1,N
1512037635.1,286047002.0,N
1512037655.9,286047000.9,N
1512037675.7,286046998.5,N
1512037695.5,286046999.7,N
1512037715.4,286047002.4,N
1512037735.2,286047000.1,N
1512037755.0,286047005.6,N
1512037755.9,286047005.6,N
1512037775.8,286047006.9,N
1512037795.6,286047007.3,N
1512037815.4,286047008.3,N
1512037835.2,286047010.2,N
1512037855.1,286047012.5,Y
1512037856.0,286047012.5,P
1512037875.8,286047012.8,N
1512037895.6,286047015.0,P
1512037915.5,286047014.2,Y
1512037935.3,286047002.9,P
1512037955.1,286047003.1,N
1512037975.9,286047004.0,N
1512037995.7,286047005.4,N
1512038015.5,286047005.5,N
1512038035.4,286047005.7,N
1512038055.2,286047005.6,N
1512038075.0,286047005.6,N
1512038075.9,286047005.6,N
1512038095.8,286047003.1,N
1512038115.6,286047001.8,N
1512038135.4,286047001.7,N
1512038155.3,286047005.2,N
1512038175.1,286047004.8,N
1512038176.0,286047004.8,N
1512038195.8,286047004.6,N
1512038215.7,286047007.6,Y
1512038235.5,286047006.0,P
1512038255.3,286047007.1,P
1512038275.2,286047002.5,N
1512038295.9,286047002.7,N
1512038315.7,286047002.1,N
1512038335.6,286047003.2,N
1512038355.4,286047005.8,Y
1512038375.2,286046998.5,P
1512038395.1,286046998.8,N
1512038396.0,286046998.8,N
1512038415.8,286046999.5,N
1512038435.6,286046996.1,N
1512038455.5,286046993.3,N
1512038475.3,286046992.2,N
1512038495.1,286046990.2,N
1512038515.8,286046996.3,N
1512038535.7,286046993.8,N
1512038555.5,286046996.2,N
1512038575.3,286046997.0,N
1512038595.2,286046995.5,N
1512038615.9,286046997.9,N
1512038635.7,286046995.1,N
1512038655.6,286046996.2,N
1512038675.4,286046997.5,N
1512038695.2,286046996.7,N
1512038715.1,286047000.4,N
1512038716.0,286047000.4,N
1512038735.8,286046998.7,N
1512038755.6,286046993.8,N
1512038775.5,286046994.8,N
1512038795.3,286046993.5,N
1512038815.1,286046993.8,N
1512038835.8,286046995.3,N
1512038855.7,286046998.0,N
1512038875.5,286046997.6,N
1512038895.3,286046991.7,N
1512038915.2,286046993.0,N
1512038935.9,286046994.6,N
1512038955.7,286046997.7,N
1512038975.6,286046998.0,N
1512038995.4,286046997.8,N
1512039015.2,286046996.9,N
1512039035.1,286047001.0,N
1512039036.0,286047001.0,N
1512039055.8,286047001.0,N
1512039075.6,286047001.1,N
1512039095.5,286047000.6,N
1512039115.3,286046999.7,N
1512039135.1,286047003.6,N
1512039155.9,286047005.1,N
1512039175.7,286047006.3,N
1512039195.5,286047010.3,N
1512039215.3,286047006.9,N
1512039235.2,286047007.2,N
1512039255.0,286047005.2,N
1512039255.9,286047005.2,N
1512039275.7,286047005.2,N
1512039295.6,286047003.5,N
1512039315.4,286047006.0,N
1512039335.2,286047003.9,N
1512039355.1,286047004.4,N
1512039356.0,286047004.4,N
1512039375.8,286047004.4,N
1512039395.6,286047006.9,N
1512039415.5,286047007.6,N
1512039435.3,286047004.4,N
1512039455.1,286047004.9,N
1512039475.9,286047001.9,N
1512039495.7,286046998.3,N
1512039515.5,286046998.1,N
1512039535.4,286047003.4,N
1512039555.2,286047003.0,N
1512039575.0,286047001.3,N
1512039575.9,286047001.3,N
1512039595.8,286047003.6,N
